Total_Precipitation_Accumulation
2.92 3.01 3.08 3.02 3.09 3.10 3.22 3.40 3.55 3.33 2.99 2.73 2.60 2.53 2.56 2.61 2.83 2.44 2.36 2.58 2.37 2.21 2.09 2.03 2.05 2.24 2.34 2.31 2.30 2.38 2.44 2.51 2.66 2.77 2.89 3.11 3.28 3.43
2.51 2.62 2.69 2.69 2.83 2.85 2.96 3.14 3.29 3.26 3.05 2.63 2.55 2.50 2.44 2.26 2.50 2.17 2.21 2.43 2.23 2.10 2.00 2.00 1.95 1.96 2.02 2.07 2.07 2.07 2.08 2.04 2.09 2.15 2.23 2.37 2.60 2.88
2.41 2.47 2.50 2.58 2.69 2.65 2.69 2.75 2.87 3.07 3.14 2.86 2.64 2.59 2.61 2.48 2.34 2.11 1.97 1.96 1.90 2.02 1.98 1.94 1.87 1.85 1.88 1.88 1.83 1.79 1.78 1.78 1.80 1.86 1.91 2.01 2.09 2.23
2.35 2.49 2.43 2.40 2.45 2.49 2.58 2.56 2.56 2.74 2.91 2.83 2.66 2.54 2.53 2.51 2.45 2.35 1.92 1.71 1.68 1.77 1.72 1.68 1.69 1.69 1.65 1.68 1.67 1.63 1.58 1.57 1.61 1.66 1.73 1.78 1.88 2.02
2.14 2.20 2.23 2.27 2.19 2.16 2.19 2.27 2.29 2.34 2.59 2.61 2.50 2.42 2.33 2.31 2.38 2.27 2.03 2.02 1.62 1.58 1.52 1.45 1.46 1.48 1.46 1.43 1.44 1.50 1.50 1.45 1.43 1.48 1.57 1.67 1.73 1.83
1.82 1.84 1.92 2.06 2.07 2.04 1.97 2.07 2.18 2.35 2.45 2.48 2.36 2.28 2.28 2.15 2.26 2.23 2.15 2.01 1.78 1.49 1.51 1.36 1.29 1.25 1.27 1.29 1.27 1.26 1.29 1.37 1.48 1.49 1.44 1.39 1.42 1.48
1.62 1.55 1.53 1.75 1.91 1.85 1.66 1.83 2.09 2.29 2.36 2.38 2.26 2.12 2.03 2.14 2.11 2.05 2.09 2.08 1.95 1.74 1.73 1.51 1.39 1.31 1.33 1.33 1.27 1.22 1.23 1.23 1.29 1.35 1.38 1.37 1.35 1.32
1.61 1.59 1.47 1.50 1.58 1.55 1.47 1.61 1.88 1.98 2.11 2.29 2.25 2.13 2.03 2.04 2.11 2.12 2.17 2.24 2.18 1.88 1.92 1.72 1.57 1.56 1.45 1.36 1.34 1.25 1.22 1.26 1.24 1.23 1.24 1.28 1.31 1.31
1.52 1.57 1.38 1.29 1.50 1.52 1.52 1.49 1.54 1.56 1.70 2.06 2.28 2.14 2.10 2.18 2.37 2.33 2.41 2.38 2.19 2.05 2.22 2.10 1.77 1.63 1.33 1.23 1.32 1.19 1.17 1.22 1.27 1.25 1.22 1.23 1.26 1.30
1.42 1.48 1.54 1.44 1.38 1.45 1.44 1.43 1.45 1.48 1.47 1.56 1.85 1.98 2.05 2.23 2.41 2.49 2.60 2.50 2.32 2.22 2.33 2.37 1.97 1.80 1.49 1.45 1.38 1.18 1.13 1.13 1.18 1.21 1.22 1.21 1.27 1.34
1.40 1.38 1.46 1.46 1.46 1.41 1.44 1.55 1.58 1.55 1.35 1.37 1.46 1.64 1.76 1.94 2.10 2.25 2.50 2.68 2.46 2.17 2.16 2.35 2.07 1.93 1.75 1.61 1.42 1.32 1.21 1.18 1.14 1.16 1.17 1.20 1.28 1.39
1.50 1.47 1.43 1.41 1.42 1.37 1.48 1.67 1.66 1.60 1.48 1.44 1.54 1.64 1.65 1.80 1.95 2.11 2.45 2.57 2.39 2.26 2.01 2.15 2.10 2.20 2.15 1.74 1.55 1.48 1.39 1.29 1.18 1.15 1.14 1.16 1.26 1.29
1.37 1.46 1.39 1.32 1.30 1.30 1.44 1.54 1.55 1.52 1.66 1.80 1.79 1.75 1.76 1.83 1.87 1.95 2.23 2.42 2.47 2.35 2.03 2.18 2.22 2.33 2.39 1.98 1.68 1.61 1.58 1.51 1.42 1.38 1.36 1.32 1.31 1.27
1.37 1.39 1.34 1.30 1.27 1.32 1.34 1.41 1.45 1.54 1.73 1.93 1.91 1.81 1.71 1.68 1.74 1.81 2.00 2.20 2.31 2.25 2.12 2.22 2.38 2.40 2.30 1.99 1.77 1.64 1.63 1.68 1.78 1.83 1.74 1.71 1.57 1.51
1.27 1.34 1.29 1.29 1.29 1.39 1.43 1.46 1.57 1.77 1.92 1.98 1.96 1.86 1.76 1.71 1.71 1.71 1.83 2.07 2.09 1.93 1.81 1.93 2.22 2.33 2.37 2.17 1.93 1.86 1.82 1.73 1.84 2.07 2.11 1.97 1.79 1.65
1.20 1.27 1.35 1.40 1.42 1.51 1.63 1.73 1.78 1.86 1.87 1.99 2.03 1.93 1.81 1.76 1.76 1.74 1.88 2.01 2.04 1.94 1.77 1.74 1.93 2.22 2.37 2.20 2.06 1.97 1.96 1.99 1.94 2.07 2.24 2.27 2.05 1.75
1.09 1.25 1.47 1.53 1.62 1.70 1.73 1.76 1.80 1.75 1.70 1.73 1.84 1.89 1.90 1.81 1.74 1.71 1.86 1.94 2.00 1.94 1.83 1.78 1.82 1.94 2.00 2.05 2.06 1.93 1.91 1.97 2.03 2.14 2.37 2.51 2.36 2.00
1.12 1.28 1.41 1.47 1.57 1.64 1.66 1.66 1.70 1.70 1.64 1.65 1.71 1.76 1.78 1.75 1.77 1.72 1.78 1.95 2.00 1.88 1.78 1.72 1.73 1.86 1.93 1.91 1.91 1.86 1.85 1.99 2.12 2.20 2.21 2.37 2.51 2.26
1.32 1.41 1.42 1.47 1.55 1.54 1.54 1.58 1.62 1.65 1.60 1.60 1.58 1.59 1.63 1.61 1.67 1.70 1.68 1.75 1.79 1.70 1.68 1.67 1.74 1.88 1.96 1.94 1.86 1.86 1.93 2.02 2.15 2.20 2.18 2.19 2.33 2.22
1.43 1.49 1.49 1.50 1.53 1.56 1.58 1.58 1.55 1.52 1.50 1.54 1.57 1.55 1.56 1.52 1.52 1.53 1.54 1.56 1.66 1.67 1.69 1.75 1.76 1.80 1.89 1.91 2.05 2.10 1.99 1.90 1.96 2.14 2.25 2.24 2.27 2.22
1.40 1.44 1.48 1.46 1.46 1.53 1.52 1.47 1.43 1.41 1.43 1.45 1.47 1.51 1.52 1.45 1.44 1.41 1.41 1.45 1.51 1.55 1.59 1.59 1.56 1.60 1.63 1.75 1.89 1.98 1.96 2.01 1.96 2.02 2.13 2.21 2.13 1.98
1.29 1.32 1.30 1.29 1.36 1.42 1.38 1.31 1.27 1.32 1.39 1.40 1.41 1.40 1.38 1.37 1.35 1.34 1.34 1.37 1.42 1.37 1.37 1.38 1.42 1.54 1.64 1.77 1.83 1.88 1.90 1.79 1.74 1.84 1.89 1.82 1.73 1.78
1.24 1.24 1.22 1.20 1.24 1.31 1.32 1.29 1.24 1.24 1.25 1.30 1.33 1.31 1.30 1.31 1.25 1.23 1.25 1.27 1.26 1.26 1.28 1.34 1.41 1.53 1.56 1.53 1.55 1.57 1.55 1.53 1.48 1.46 1.55 1.65 1.63 1.61